Theta_e
287 287 287 287 287 287 288 288 288 288 288 289 289 288 288 288 287 287 287 287 287 287 287 287 288 288 288 289 289 290 290 290 290 290 290 290 290 290 290 290 291 291 291 291 291 291 292 292 292 292 292 292 291 291 290 290 291 291 292 292 293 293 294 294 295 296 296 297 297 297 298 298 298 298 299 299 299 299 300 300 301 302 302 302 303 304
287 287 287 287 288 288 288 288 288 288 288 288 288 288 288 287 287 287 287 287 287 287 288 288 288 288 289 289 289 290 290 290 290 290 290 290 290 290 290 290 291 291 291 291 291 291 291 292 292 292 292 291 291 290 290 290 291 291 292 292 293 293 294 295 295 296 297 297 297 297 297 297 297 297 298 298 298 299 299 300 300 301 301 302 303 303
287 287 287 288 288 288 288 288 288 288 289 288 288 288 288 287 287 287 287 287 288 288 288 289 289 289 289 289 289 289 289 290 290 290 290 290 290 290 290 290 290 291 291 291 291 291 291 291 292 292 291 291 291 290 290 290 291 291 292 293 293 294 294 295 295 296 296 296 296 296 296 296 296 296 297 297 298 298 299 299 300 300 301 302 302 303
287 288 288 288 288 288 288 288 288 289 289 288 288 288 287 287 287 287 288 288 288 289 289 289 289 289 289 289 289 289 289 289 289 289 290 290 290 290 290 290 290 290 290 290 290 291 291 291 291 291 291 291 290 290 290 290 291 291 292 293 294 294 295 295 295 296 296 296 296 295 295 295 296 296 296 297 298 298 299 299 299 300 300 301 302 303
288 288 289 289 288 288 288 288 289 289 289 288 288 287 287 287 287 288 289 289 289 289 289 288 288 288 288 288 288 288 288 288 289 289 289 289 289 289 289 289 289 289 290 290 290 291 291 291 291 291 290 290 290 290 290 290 290 291 292 293 294 294 295 295 295 296 296 295 295 294 294 294 295 295 296 297 297 298 298 299 299 299 300 301 302 302
289 289 289 288 288 288 288 289 289 289 288 287 287 287 287 288 288 289 289 289 288 288 287 287 287 287 286 286 286 287 287 287 287 287 288 288 288 288 288 289 289 289 289 290 290 291 291 291 290 290 290 290 290 290 290 290 290 291 292 293 293 294 295 295 295 295 295 294 294 294 294 294 295 296 296 297 297 298 298 299 299 300 300 301 302 302
289 289 288 288 288 288 288 289 289 288 287 287 287 287 288 288 289 288 288 287 287 286 286 285 285 285 285 285 285 286 286 286 286 286 287 287 287 288 288 288 289 289 290 290 290 290 290 290 290 290 289 289 289 289 289 290 290 291 292 293 293 294 294 294 294 294 293 293 293 294 294 295 296 296 297 297 297 298 298 299 300 300 301 301 302 302
289 288 287 287 288 288 289 289 288 288 287 287 288 288 288 288 288 287 286 286 285 285 285 285 285 284 285 285 285 285 285 285 286 286 286 287 287 288 288 289 289 290 290 290 290 290 290 290 289 289 289 289 289 289 289 289 290 291 292 293 293 293 293 293 293 293 293 293 293 294 295 295 296 296 296 297 297 298 298 299 299 300 301 301 302 302
288 288 288 288 288 289 289 288 288 287 287 288 288 288 288 287 286 285 285 285 284 284 284 284 284 284 284 284 285 285 285 285 286 286 286 287 288 288 289 289 289 290 290 289 289 289 289 289 289 289 288 288 288 288 289 289 290 291 292 292 292 292 293 293 292 292 293 293 293 294 294 295 296 296 296 297 297 297 298 298 299 299 300 300 301 302
288 288 288 288 288 288 288 287 287 287 288 287 287 286 286 285 285 284 284 284 284 284 284 284 284 284 284 284 284 285 285 285 286 287 287 288 289 289 289 289 289 289 288 288 288 288 288 288 288 288 288 288 288 288 288 289 290 291 292 292 292 292 292 292 292 292 293 293 293 294 294 295 295 296 296 296 296 296 297 297 297 298 298 299 300 301
288 288 289 288 288 288 288 287 287 287 287 286 286 285 285 285 284 284 284 284 284 284 284 284 284 284 284 284 285 285 285 286 287 288 288 288 289 288 288 288 288 287 287 287 287 287 287 287 287 287 287 287 287 288 288 289 290 290 291 291 291 291 291 291 292 292 293 293 293 293 293 294 295 295 295 295 295 296 296 296 296 296 296 297 299 300
289 289 288 288 288 288 287 287 287 286 285 285 285 285 285 284 284 284 284 284 284 284 284 284 284 284 284 284 285 285 286 287 288 288 288 287 287 287 286 286 286 286 286 286 286 286 286 286 286 286 286 287 287 288 288 289 289 290 290 290 290 291 291 292 292 293 293 293 293 293 293 294 294 294 295 295 295 295 295 295 295 295 295 296 297 298
289 288 288 288 288 287 287 286 285 285 284 284 284 284 284 284 284 284 284 283 284 284 284 284 284 284 284 285 286 287 287 288 287 287 286 286 285 285 285 285 285 285 285 285 285 285 285 285 285 286 286 286 287 287 288 288 289 289 289 290 290 291 291 292 292 292 292 292 292 292 293 293 294 294 294 294 294 294 294 294 295 295 296 296 296 296
288 288 288 287 287 286 285 285 284 284 284 284 284 284 284 284 284 283 283 283 284 284 284 284 284 285 285 286 287 287 287 286 286 285 285 285 285 285 285 285 285 285 285 284 284 284 284 285 285 285 286 286 286 287 287 288 288 289 289 290 290 291 292 292 292 292 292 291 291 292 292 293 293 293 293 293 293 293 294 294 295 296 296 296 296 296
288 287 286 286 285 285 284 284 284 284 284 284 284 284 284 284 283 283 283 284 284 284 284 284 285 285 286 287 287 286 285 285 285 284 284 284 284 284 284 284 284 284 284 284 284 284 284 285 285 285 285 286 286 287 287 288 288 289 290 290 291 292 292 292 291 291 291 291 291 291 292 292 292 292 292 293 293 293 294 295 296 296 297 297 297 297
286 285 285 284 284 284 284 284 283 283 283 283 284 284 284 283 283 283 284 284 284 284 284 285 285 286 286 286 285 285 284 284 284 284 284 284 284 284 284 284 284 284 284 284 284 284 284 285 285 285 286 286 286 287 288 288 289 290 291 291 292 292 291 291 291 291 291 291 291 291 291 291 292 292 292 292 293 294 295 296 296 296 297 297 297 297
285 284 284 284 284 284 283 283 283 283 283 283 283 283 283 283 283 283 284 284 284 284 285 285 286 286 286 285 285 284 284 284 284 284 284 284 284 284 284 284 284 284 284 284 284 284 285 285 285 286 286 286 287 288 289 290 291 291 291 291 291 291 290 290 290 290 291 291 291 291 291 291 291 292 292 293 293 294 295 295 295 295 295 295 296 297
284 284 284 284 283 283 283 283 283 283 283 283 283 283 283 283 284 284 284 284 284 285 285 286 286 286 285 285 285 284 284 284 284 284 284 284 283 283 283 283 283 284 284 284 284 285 285 285 285 286 286 287 288 289 290 290 290 290 290 290 290 290 290 290 290 290 291 291 291 291 290 291 291 292 292 293 294 295 295 294 294 293 293 294 295 296
284 283 283 283 283 283 283 283 283 283 283 284 284 284 284 284 284 284 284 285 285 286 286 286 285 285 285 284 284 284 283 283 283 283 283 283 283 283 283 283 284 284 284 284 285 285 285 285 286 287 288 289 290 290 290 289 289 289 289 289 289 289 289 289 290 290 291 291 290 290 290 290 291 292 293 294 294 294 293 293 293 293 293 294 294 295
283 283 283 283 283 283 283 283 283 283 284 284 284 284 284 284 284 285 285 285 286 285 285 285 285 284 284 284 283 283 283 283 283 283 283 283 283 283 283 284 284 284 285 285 285 286 286 287 288 289 288 288 287 287 287 287 288 288 288 288 288 289 289 289 290 290 291 290 290 289 290 291 291 292 293 293 292 292 292 292 292 293 293 294 294 295
282 282 282 282 283 283 283 283 284 284 284 284 284 285 285 285 285 285 286 285 285 285 284 284 284 284 284 283 283 283 283 283 283 283 283 283 284 284 284 284 285 285 285 286 286 287 287 288 287 286 285 285 286 286 286 287 287 287 288 288 288 289 289 290 290 291 290 290 289 289 290 291 292 292 292 291 291 291 291 291 292 292 293 294 294 295
282 282 282 283 283 283 284 284 284 284 285 285 285 285 285 285 285 284 284 284 284 284 284 284 284 283 283 283 283 282 282 283 283 283 283 284 284 284 284 284 285 285 285 286 287 287 287 286 285 284 284 285 285 286 286 286 287 287 287 288 288 289 290 290 290 290 290 289 289 290 290 291 291 291 291 290 290 290 291 291 292 292 293 293 294 295
282 283 283 283 284 284 284 285 285 285 284 284 284 284 284 284 283 283 283 283 284 284 284 283 283 283 283 282 282 282 282 283 283 283 283 284 284 284 284 284 285 285 286 286 286 286 285 284 284 284 284 284 285 285 286 286 286 287 287 288 288 289 290 290 290 289 289 289 289 290 291 291 290 290 290 290 290 290 291 291 292 292 292 293 294 295
283 283 284 284 284 284 284 284 284 283 283 283 283 283 283 283 283 283 284 284 284 284 283 283 283 282 282 282 282 282 282 282 283 283 283 284 284 284 284 285 285 286 286 285 285 284 283 283 283 284 284 284 285 285 285 286 286 287 287 288 289 289 290 289 289 289 289 289 289 290 290 290 290 290 290 290 290 291 291 291 291 292 292 293 294 295
284 284 284 284 284 283 283 283 282 282 282 282 282 283 283 283 283 284 284 284 283 283 283 282 282 282 282 282 282 282 282 282 283 283 284 284 284 284 284 285 285 285 284 284 283 283 283 284 284 284 284 284 285 285 285 286 286 287 287 288 289 289 289 289 289 289 289 289 289 289 289 289 289 290 290 290 290 291 291 291 291 291 292 293 294 294
284 284 283 283 282 282 282 282 282 282 282 282 282 283 283 283 283 284 283 283 283 283 282 282 282 282 282 282 282 282 282 283 283 283 284 284 284 284 284 284 284 284 283 283 283 283 284 284 284 284 284 284 285 285 285 286 286 287 288 288 288 288 288 288 288 288 288 288 289 289 289 289 289 290 290 290 290 290 290 291 291 291 292 293 293 294
283 282 281 281 281 281 281 281 281 282 282 282 282 283 283 283 283 283 283 283 283 282 282 282 282 282 282 282 282 282 283 283 283 283 283 284 284 284 284 284 283 283 283 283 283 283 284 284 284 284 285 285 285 285 285 286 287 288 288 288 288 288 288 288 288 288 288 288 289 289 289 289 289 290 290 290 290 290 290 290 291 291 292 293 293 294
281 281 280 280 280 281 281 281 281 281 281 282 282 282 283 283 283 283 283 283 282 282 282 282 282 282 282 282 282 282 282 282 282 283 283 283 283 283 283 283 283 283 283 283 283 284 284 284 284 284 285 285 285 285 286 286 287 287 288 287 287 287 287 287 287 287 288 288 289 289 289 289 289 289 289 289 289 290 290 290 291 291 292 292 293 293
280 280 280 280 280 280 280 280 280 281 281 281 282 282 283 283 283 283 282 282 282 282 282 282 282 282 282 282 282 282 282 282 282 282 282 282 283 283 283 283 283 283 283 283 284 284 284 284 284 284 285 285 285 285 286 286 286 287 287 287 287 287 287 287 287 287 288 288 288 289 289 289 289 289 289 289 289 289 290 290 291 291 292 292 293 293
280 279 279 280 280 280 280 280 280 280 281 281 282 282 283 283 282 282 282 282 282 282 282 282 282 282 282 282 282 282 282 282 282 282 282 282 282 283 283 283 283 283 283 284 284 284 284 284 284 284 285 285 285 285 285 286 286 286 286 286 286 286 286 286 287 287 288 288 288 288 288 288 288 288 288 288 289 289 290 290 291 291 292 292 293 293
279 279 279 279 280 280 280 280 280 280 281 281 282 282 282 282 282 282 281 282 282 282 282 282 282 282 282 282 282 282 282 282 282 282 282 282 282 283 283 283 283 283 283 284 284 284 284 284 284 284 284 284 285 285 285 286 286 286 286 285 285 286 286 287 287 287 287 287 287 287 287 287 287 287 288 288 289 289 290 290 291 291 292 293 293 294
280 280 280 280 280 280 280 280 280 281 281 281 282 282 282 282 281 281 281 281 281 281 282 282 282 282 282 282 282 282 282 282 282 282 282 282 282 283 283 283 283 283 283 283 284 284 284 284 284 284 284 285 285 285 286 286 286 286 285 286 286 286 286 286 286 286 286 286 286 286 286 286 287 287 287 288 288 289 290 290 291 292 292 293 294 295
280 280 280 280 280 280 280 280 281 281 281 281 282 282 281 281 281 281 281 281 281 281 281 281 281 281 281 282 282 282 282 282 282 282 282 282 282 283 283 283 283 283 283 284 284 284 284 284 284 284 284 285 285 285 286 286 286 286 286 286 286 286 286 286 285 285 285 285 285 285 285 286 286 287 287 288 288 289 290 290 291 292 293 294 295 296
280 280 280 280 280 280 280 280 281 281 281 281 281 281 281 281 281 281 281 281 281 281 281 281 281 281 281 281 281 282 282 282 282 282 282 282 282 283 283 283 283 283 283 284 284 284 284 284 284 284 285 285 285 286 286 286 286 286 286 286 285 285 285 285 285 284 284 284 285 285 285 285 285 286 287 287 288 289 290 291 292 293 294 295 295 296
280 280 280 280 280 280 280 281 281 281 281 281 281 281 281 281 281 281 281 281 281 281 281 281 281 281 281 281 281 282 282 282 282 282 282 282 283 283 283 283 283 283 283 284 284 284 284 284 285 285 285 286 286 286 285 286 286 286 285 285 285 284 284 284 284 284 284 284 284 284 285 285 285 286 286 287 289 290 291 292 293 294 294 295 295 296
280 280 280 280 280 281 281 281 281 281 281 281 281 281 281 281 281 280 280 280 281 281 281 281 281 281 281 281 281 282 282 282 282 282 282 282 282 283 283 283 283 283 283 284 284 284 284 285 285 286 286 286 285 285 285 285 285 285 284 284 284 284 284 284 284 284 284 284 284 284 285 285 286 286 287 288 290 291 292 292 293 293 293 294 295 295
280 280 280 280 281 281 281 281 281 281 281 281 281 281 280 280 280 280 280 280 280 280 280 281 281 281 281 281 281 281 281 282 282 282 282 282 282 282 283 283 283 283 283 283 284 284 285 285 285 285 285 285 285 285 285 285 284 284 284 284 284 284 284 284 284 284 284 284 284 285 285 285 286 287 288 289 290 291 291 291 292 292 293 294 294 295
280 281 281 281 281 281 281 281 281 281 281 281 280 280 280 280 280 280 280 280 280 280 280 280 281 281 281 281 281 281 281 282 282 282 282 282 282 282 283 283 283 283 283 284 284 285 285 285 284 284 284 284 284 284 284 284 284 284 284 284 283 283 284 284 284 284 284 284 285 285 285 286 287 288 288 289 290 290 290 291 291 292 293 294 294 295
281 281 281 281 281 281 281 281 281 280 280 280 280 280 280 280 280 280 280 280 280 280 280 280 281 281 281 281 281 281 282 282 282 282 282 282 282 282 283 283 283 283 283 284 284 285 284 284 283 283 283 283 283 283 283 283 283 283 283 283 283 284 284 284 284 284 284 284 285 285 286 287 287 288 289 289 290 290 290 291 291 292 293 293 294 295
281 281 281 281 281 280 280 280 280 280 280 280 280 280 280 280 280 280 280 280 280 280 281 281 281 281 281 281 281 282 282 282 282 282 282 282 282 283 283 283 283 284 284 284 284 283 283 282 282 282 282 282 282 283 283 283 283 283 283 284 284 284 284 284 284 284 285 285 285 286 287 287 288 288 289 289 290 290 290 291 291 292 293 293 294 295
281 280 280 280 280 280 280 280 280 280 280 280 280 280 280 280 280 280 280 280 280 281 281 281 281 281 281 281 281 282 282 282 282 282 282 283 283 283 283 283 284 284 284 284 283 282 282 282 281 281 281 282 282 282 283 283 283 283 283 284 284 284 284 284 284 285 285 286 286 286 287 287 288 289 289 290 290 290 291 291 292 292 293 294 294 294
280 280 280 280 280 280 280 280 280 280 280 280 280 280 280 280 280 280 280 280 281 281 281 281 281 281 281 281 281 282 282 282 282 282 283 283 283 284 284 284 284 284 284 283 282 282 281 281 281 281 281 282 282 282 282 282 283 283 283 283 284 284 284 284 285 285 285 286 286 286 287 287 288 289 289 290 291 291 292 292 292 293 294 294 295 295
280 280 280 280 280 280 280 280 280 280 280 280 280 280 280 280 280 280 280 280 281 281 281 281 281 281 281 281 281 282 282 282 283 283 283 283 283 284 284 284 284 284 283 282 282 281 281 281 281 281 281 281 281 282 282 282 283 283 283 283 284 284 284 284 285 285 285 285 286 286 287 288 288 289 290 290 291 292 292 292 293 294 294 295 296 296
280 280 280 280 280 280 280 280 280 280 280 280 280 280 280 280 280 280 280 280 281 281 281 281 281 281 281 281 282 282 282 283 283 283 283 283 283 283 284 284 283 283 282 281 281 281 280 280 280 280 281 281 281 282 282 282 283 283 283 283 284 284 284 284 284 284 285 285 286 287 287 288 289 289 290 291 292 292 292 293 294 294 295 295 296 297
279 280 280 280 280 280 280 280 280 280 280 280 280 280 280 280 280 280 280 280 281 281 281 281 281 281 281 282 282 282 283 283 283 283 283 283 283 283 283 283 282 282 281 281 280 280 280 280 280 280 280 281 281 282 282 283 283 283 283 283 283 283 284 284 284 284 285 285 286 287 288 289 289 290 290 291 292 292 293 293 294 294 295 296 296 297
279 279 279 279 279 279 279 280 280 280 280 280 280 280 280 280 280 280 280 281 281 281 281 281 281 281 281 282 282 282 283 283 283 283 283 282 282 282 282 282 282 281 280 280 280 279 279 280 280 280 280 281 281 282 283 283 283 283 283 283 283 283 283 284 284 284 285 286 287 288 288 289 289 290 291 291 292 292 293 293 293 294 295 295 296 296
279 279 279 279 279 279 279 279 280 280 280 280 280 280 280 280 280 280 281 281 281 281 281 281 281 281 281 282 282 283 283 283 283 283 282 282 282 282 282 281 281 280 280 279 279 279 280 280 280 280 280 281 282 283 283 283 283 283 283 283 283 283 283 284 284 285 286 286 287 288 289 289 290 290 291 292 292 293 293 293 293 294 295 295 296 296
279 279 279 279 279 279 279 279 279 280 280 280 280 280 280 280 280 281 281 281 281 281 281 281 281 281 282 282 282 283 283 283 283 282 282 282 282 282 282 281 280 280 279 279 279 280 281 281 282 282 281 282 282 283 283 283 283 283 283 283 283 283 283 284 285 286 287 287 288 288 289 289 289 290 291 292 292 292 293 293 293 294 294 295 295 296
279 279 279 279 279 279 279 279 279 279 280 280 280 280 280 280 280 281 281 281 281 281 281 281 281 281 282 282 283 283 283 283 282 282 282 282 282 281 281 280 280 279 279 279 280 281 282 283 283 283 283 283 283 283 283 283 283 283 283 283 283 283 284 284 285 286 287 288 288 289 289 290 290 291 291 292 292 292 293 293 293 293 294 294 295 295
279 279 279 279 279 279 279 279 279 279 280 280 280 280 280 280 280 280 280 280 281 281 281 281 281 282 282 283 283 283 283 282 282 282 281 281 281 281 280 280 279 279 279 279 280 281 282 283 283 283 283 283 283 283 283 283 283 283 284 284 284 284 284 285 286 287 287 288 288 289 290 290 291 291 292 292 292 292 293 293 293 293 293 294 295 295
279 279 279 279 279 279 279 279 279 279 280 280 280 280 280 280 280 280 280 281 281 281 281 281 282 282 283 283 283 282 282 282 281 281 281 281 281 280 280 279 279 279 278 279 279 280 281 282 282 282 282 283 283 283 283 283 283 284 284 284 284 284 284 285 286 287 287 288 289 289 290 290 290 291 291 292 292 292 292 293 293 293 293 294 294 295
Wind_Speed
33 34 33 33 32 33 33 33 33 34 35 34 32 31 32 32 33 34 34 33 32 32 32 32 32 32 33 33 33 32 32 33 33 34 35 36 37 38 40 41 41 41 40 39 38 38 38 38 38 37 36 36 36 37 39 40 40 40 39 38 38 38 37 37 37 36 35 34 34 34 34 34 34 34 34 33 33 34 35 35 36 37 37 36 35 33
33 33 32 31 31 31 32 33 33 33 34 33 32 32 32 33 34 35 34 33 32 30 30 30 30 31 31 31 31 31 32 32 33 34 35 37 38 40 40 41 40 40 39 38 38 38 38 38 38 37 36 36 36 38 40 41 40 39 38 38 37 37 37 37 37 35 34 33 33 32 33 33 33 34 33 33 32 33 33 35 36 37 37 37 36 34
32 32 31 29 28 29 31 33 34 34 33 32 32 32 33 34 34 33 32 30 29 27 27 27 28 29 30 30 31 31 32 33 34 35 36 38 39 39 40 40 39 39 38 38 38 38 38 38 37 36 35 36 37 39 41 41 40 39 38 37 37 37 37 37 37 35 34 32 32 32 32 32 33 33 32 32 32 32 32 34 35 36 37 38 37 36
30 29 28 26 27 29 31 33 34 33 31 30 31 32 32 33 32 30 28 26 25 25 25 26 28 29 30 30 31 32 33 34 36 37 37 38 38 39 38 38 38 38 37 37 38 38 38 37 36 35 35 37 39 40 41 41 40 39 38 37 37 37 37 36 35 34 32 31 32 32 33 33 33 32 32 31 31 31 32 33 34 35 36 37 37 37
27 25 25 26 28 31 34 34 32 31 29 28 29 31 31 30 28 26 24 23 24 25 27 28 29 29 30 32 33 34 35 36 37 37 37 38 38 38 37 37 37 37 37 37 37 37 36 36 35 35 36 38 39 41 41 41 40 39 38 37 36 36 35 35 33 31 29 30 31 33 33 33 33 33 32 31 31 32 32 33 34 34 35 35 35 36
24 23 25 27 30 33 35 33 30 28 27 29 30 30 29 27 24 22 22 24 25 27 28 29 31 32 33 34 34 35 35 36 36 37 37 37 37 36 36 36 35 35 35 35 35 35 35 34 34 35 37 39 40 41 41 40 40 39 38 36 35 34 34 32 30 29 29 29 31 32 32 33 32 32 32 32 32 32 32 33 34 34 34 33 33 35
24 25 28 31 33 34 32 29 27 26 28 29 29 27 24 23 22 23 24 26 28 29 30 31 32 33 34 34 34 34 35 35 35 35 35 35 35 34 33 33 33 33 32 33 33 33 34 35 35 37 38 39 40 41 41 40 40 38 37 36 35 33 32 30 29 29 29 30 30 31 31 31 31 31 31 31 31 31 31 32 33 33 32 31 32 33
26 29 31 32 33 32 29 27 27 28 29 26 23 21 21 22 24 26 28 29 29 30 31 33 34 34 33 33 33 33 33 33 33 33 33 32 31 31 30 30 30 30 31 32 33 33 34 35 36 37 39 40 41 41 41 40 39 37 36 36 35 33 31 30 29 29 29 30 30 30 30 31 31 31 30 30 29 30 30 30 31 31 30 30 30 31
27 29 31 31 30 29 27 27 28 28 25 22 19 19 21 24 26 28 30 30 30 31 32 33 33 33 33 32 32 32 33 33 32 32 31 30 29 28 28 28 29 30 31 31 32 33 34 36 37 38 39 41 41 41 40 39 37 36 35 34 33 32 31 30 30 29 29 30 30 30 29 30 30 30 29 29 28 28 28 28 28 29 29 29 29 30
27 26 27 29 28 26 25 25 24 23 21 21 21 22 23 24 26 28 29 31 32 33 32 31 31 31 32 32 32 32 32 32 31 30 28 27 27 27 28 28 29 29 30 31 33 34 35 37 38 39 40 41 41 40 38 37 35 34 33 32 31 30 30 30 30 29 29 30 30 30 29 30 30 30 29 29 28 28 28 28 28 29 29 29 28 28
24 24 24 25 25 23 21 19 19 20 22 24 26 27 26 26 26 26 26 29 31 33 31 30 29 30 31 32 33 33 32 30 27 26 25 26 26 27 27 28 28 29 30 32 33 34 36 37 38 39 40 40 39 38 36 35 33 33 32 31 30 30 30 30 30 30 30 31 31 31 31 31 31 30 30 30 30 29 29 29 30 31 31 31 30 28
20 20 21 20 19 17 16 17 19 22 25 26 26 26 27 28 28 27 25 26 28 30 30 30 30 30 31 32 33 32 28 25 23 23 25 25 26 26 26 27 28 29 30 31 32 33 35 36 37 38 39 38 37 36 34 33 32 32 31 31 31 31 30 30 30 30 30 31 32 32 32 32 31 31 30 31 31 30 30 31 31 32 32 32 33 32
18 18 17 15 14 15 17 20 24 27 28 27 23 21 23 27 29 29 27 27 28 28 28 29 30 31 33 32 30 25 22 20 21 23 25 26 26 26 26 27 28 29 30 31 31 33 34 35 36 36 36 36 35 34 33 32 32 31 31 31 31 31 30 30 29 30 30 31 32 32 32 31 31 31 31 31 31 32 32 32 32 32 32 32 32 33
17 16 15 15 17 20 23 25 26 26 26 26 25 25 27 29 30 29 27 27 28 29 28 28 30 31 31 27 23 20 19 21 23 25 26 27 27 27 27 28 29 31 32 32 33 34 34 34 34 34 34 34 33 33 32 32 31 31 31 31 31 30 29 29 29 30 31 32 33 33 32 32 32 32 32 32 32 32 32 32 32 32 32 31 31 32
16 14 12 12 17 22 26 28 27 26 27 28 29 29 30 29 29 27 26 25 27 28 28 28 28 28 25 20 17 17 20 23 25 26 28 29 30 29 29 29 31 32 32 32 32 33 33 33 32 33 33 33 33 32 32 32 31 31 31 31 30 29 28 28 29 31 32 33 33 32 32 32 32 32 32 32 31 31 31 32 32 31 30 30 30 31
18 16 12 11 16 23 28 29 28 28 29 29 29 29 28 27 27 27 25 25 26 26 24 22 20 19 19 21 20 20 21 23 24 26 28 31 32 32 30 29 30 32 32 31 31 31 32 32 32 32 32 32 32 31 31 31 31 30 29 28 27 27 29 30 31 32 32 32 32 32 32 33 33 32 32 31 31 30 31 30 29 28 28 27 28 29
20 20 18 16 19 24 30 30 29 28 29 29 29 28 27 27 27 27 26 25 24 22 19 12 9 8 10 18 21 20 20 21 24 26 29 32 33 33 29 28 29 30 31 30 30 30 31 31 31 31 31 31 30 30 30 29 29 28 27 26 27 29 31 32 32 32 31 31 31 32 33 33 33 32 31 30 30 30 30 28 27 27 27 28 28 29
22 23 23 21 22 26 29 29 28 28 28 28 28 28 29 29 29 28 27 25 22 18 15 10 7 6 6 7 15 22 21 22 24 27 30 31 33 32 29 27 27 29 30 30 29 30 31 31 32 32 31 30 29 27 26 25 26 26 27 28 30 31 32 33 32 31 30 31 32 32 33 33 32 31 30 30 30 30 29 28 28 27 27 28 29 30
25 26 26 25 26 27 28 27 27 27 27 27 28 28 28 29 29 28 25 23 19 16 14 11 9 8 9 12 20 25 25 25 26 28 28 29 30 30 28 26 26 28 28 29 29 30 31 32 32 30 27 24 23 22 23 25 27 28 30 31 32 33 33 32 31 30 30 31 32 32 33 33 32 31 30 29 29 29 29 29 29 28 28 28 29 30
27 28 28 27 27 27 27 27 28 28 28 29 29 29 27 27 26 24 21 19 18 19 20 17 15 16 19 22 26 28 28 27 27 27 27 27 28 28 27 25 25 25 26 27 28 29 29 27 25 22 21 22 23 25 27 28 30 31 32 33 34 34 33 31 30 30 30 31 32 32 32 32 31 30 29 29 29 29 29 29 29 29 28 28 28 29
28 29 29 29 28 26 25 27 28 29 29 29 28 26 24 22 20 19 19 19 21 24 24 21 20 22 24 24 26 28 29 27 26 25 24 24 25 26 25 23 23 23 24 26 26 24 23 21 22 23 24 25 27 28 30 31 32 33 34 34 34 33 32 30 30 30 31 31 32 32 32 32 31 31 30 29 29 30 30 30 29 29 28 27 28 28
28 29 30 30 28 27 27 28 29 28 27 26 24 22 20 20 21 22 25 26 26 25 24 22 23 25 26 26 28 29 28 26 25 24 22 15 18 24 25 24 23 24 24 24 22 20 20 21 24 26 27 28 29 30 31 32 33 34 34 34 33 32 31 30 30 30 31 32 32 32 32 32 31 31 30 30 30 30 30 30 29 29 28 27 27 27
29 29 29 28 27 26 26 25 26 26 25 25 26 26 25 25 26 27 28 27 26 25 25 27 28 28 27 27 28 28 26 24 24 24 21 13 15 22 26 24 23 23 22 20 20 21 24 26 28 29 29 29 30 31 31 32 33 33 34 33 33 31 30 29 29 30 31 32 33 32 32 31 31 31 31 30 30 30 30 29 29 28 28 27 27 27
28 27 26 25 25 25 26 26 28 29 30 30 30 31 31 30 29 28 27 27 26 26 26 28 28 27 27 27 27 26 25 24 24 23 19 12 14 21 25 24 21 20 21 23 25 27 29 29 29 29 28 29 29 30 31 32 33 33 33 33 31 30 29 28 29 30 32 33 33 32 32 32 31 31 31 31 30 30 30 29 29 28 28 28 27 27
26 25 25 25 27 29 30 32 33 33 33 32 31 30 30 29 28 27 26 26 26 26 26 25 21 19 22 24 24 24 25 24 23 22 19 14 16 22 25 23 21 21 24 27 28 28 28 28 28 28 28 28 28 29 31 32 33 33 32 30 29 28 27 28 29 31 32 33 33 32 32 32 31 31 31 30 30 30 29 29 29 29 28 28 28 28
24 25 27 29 31 32 33 33 33 33 32 31 30 30 29 28 28 27 26 25 24 24 23 18 13 13 18 20 21 21 22 21 21 20 20 17 17 20 23 23 22 23 25 27 28 27 27 27 28 28 27 28 28 29 30 31 31 30 29 28 27 26 27 29 31 32 33 33 33 33 32 32 31 31 31 30 30 30 30 29 29 29 29 29 29 29
24 27 29 31 32 32 32 32 32 32 32 31 31 30 30 29 27 25 23 23 23 22 18 11 10 11 13 14 16 18 20 20 19 20 21 20 16 15 19 21 22 22 24 26 27 27 27 27 27 27 27 27 28 28 28 28 28 27 26 25 25 26 28 30 32 32 33 33 32 32 32 31 31 31 31 30 30 30 30 29 29 29 29 29 28 28
26 29 30 31 31 31 31 31 31 31 31 31 31 31 29 27 24 21 20 22 23 21 17 12 10 10 9 7 13 19 22 21 21 22 22 21 14 12 19 22 24 24 24 25 27 28 26 25 25 25 25 25 25 25 26 25 24 23 23 24 26 28 30 31 32 32 32 31 31 31 31 31 31 31 31 31 31 30 30 29 29 29 29 28 26 26
29 30 30 30 30 30 31 31 31 31 31 30 30 29 28 26 23 22 22 23 23 20 15 12 11 10 9 10 16 21 22 22 23 23 22 19 14 14 22 24 24 24 24 22 22 24 23 23 22 22 22 22 23 23 24 23 23 23 24 25 27 29 30 30 30 30 29 29 29 30 30 31 31 32 31 31 31 30 30 29 29 28 27 26 25 25
31 31 30 30 30 30 30 30 30 29 29 29 28 27 25 24 23 23 24 24 22 19 16 14 13 12 10 12 13 13 14 20 22 23 22 16 12 15 22 23 23 23 22 16 12 11 14 17 19 20 20 22 24 25 25 24 24 24 25 25 26 27 27 27 26 26 26 27 28 30 31 32 32 32 31 31 31 30 30 29 28 27 26 25 25 25
30 30 30 29 29 29 28 28 28 28 28 27 26 24 23 23 22 22 23 23 21 20 19 17 17 16 14 9 7 5 6 18 24 25 23 18 14 16 21 20 21 22 21 16 8 4 7 9 16 22 22 23 25 25 25 24 24 24 24 24 25 24 24 23 23 24 26 27 29 30 31 31 31 31 31 30 30 30 30 29 28 27 26 25 24 24
29 29 29 28 28 28 28 27 27 26 26 25 23 22 22 22 22 22 22 22 21 21 21 20 20 20 19 12 9 8 9 21 27 28 25 20 19 20 22 20 20 22 23 21 14 7 6 4 12 22 24 25 25 24 23 22 22 23 23 22 22 21 20 21 22 24 26 27 28 29 29 29 29 29 30 30 29 29 29 28 27 27 26 25 24 23
28 28 28 28 28 27 27 26 26 26 25 23 22 22 22 22 22 22 22 22 22 22 22 21 20 20 19 17 15 15 19 25 29 29 27 22 19 19 21 21 21 21 22 23 20 15 11 7 12 19 24 24 23 22 21 21 22 22 21 19 18 19 20 21 23 24 25 26 27 27 28 28 28 28 28 28 28 28 28 27 26 26 25 24 23 22
28 27 28 28 27 27 26 26 25 25 24 23 22 22 23 23 23 23 22 22 23 23 22 22 21 20 19 17 16 18 23 27 29 28 27 24 20 19 21 20 20 19 19 17 18 18 15 15 14 13 15 20 22 21 20 21 20 19 17 17 18 20 22 23 24 24 24 25 26 27 27 28 28 28 27 27 27 26 25 24 24 24 23 23 22 21
27 27 27 26 26 26 25 25 24 24 23 23 23 23 24 24 24 24 24 24 24 24 23 24 24 23 22 19 15 16 22 27 30 29 28 25 22 20 21 20 20 19 16 14 12 11 9 13 15 13 9 12 16 19 20 18 16 16 16 17 19 21 23 23 24 24 25 25 26 27 27 28 28 27 27 25 25 24 24 23 23 23 22 22 22 21
25 26 25 25 25 24 24 24 24 24 23 24 24 24 25 25 25 25 25 26 25 25 26 26 26 26 25 24 22 21 24 29 31 31 29 28 25 22 20 21 23 22 17 14 11 9 7 9 12 14 12 8 10 14 17 16 16 16 18 20 21 22 23 23 24 24 24 25 25 26 27 28 27 27 26 25 24 23 23 23 22 21 21 21 21 22
24 24 24 24 24 23 23 24 24 24 24 24 25 25 25 26 26 26 27 27 27 27 27 27 27 27 27 27 27 28 29 31 32 33 33 32 30 26 22 23 25 24 20 16 14 12 9 8 9 10 10 8 6 8 13 17 19 20 22 22 22 22 23 24 24 24 24 24 24 25 27 27 26 25 25 24 24 23 23 21 20 18 18 18 18 20
22 22 23 24 24 23 24 24 24 25 25 25 26 26 27 27 27 28 28 28 28 28 28 28 27 28 29 29 30 32 33 33 35 36 36 35 33 30 25 24 24 24 21 19 17 13 9 8 9 9 8 7 9 13 17 19 20 21 22 22 22 21 22 23 24 24 23 23 24 25 26 26 25 25 24 24 23 22 21 20 18 16 15 15 16 17
21 22 23 23 24 24 24 24 25 26 26 26 27 27 27 27 27 27 26 26 26 26 27 27 27 28 29 30 31 32 32 33 34 35 35 34 32 30 28 24 23 23 21 18 16 14 11 10 9 9 9 8 10 15 19 19 18 19 21 22 22 22 22 22 22 23 23 23 24 24 25 25 24 23 22 21 20 19 18 18 17 15 14 15 15 15
21 22 23 24 24 24 25 25 26 27 27 27 27 27 27 26 26 26 25 25 25 25 26 26 26 27 27 28 28 29 30 31 32 32 31 31 31 30 28 25 22 20 18 16 15 16 17 15 13 11 10 8 8 10 14 16 17 18 19 16 16 19 22 22 23 24 24 23 23 23 23 23 22 21 20 20 19 18 17 17 16 15 14 14 14 15
22 23 24 25 25 26 26 26 27 27 27 26 26 26 25 25 25 25 25 25 25 25 25 25 26 26 26 26 27 28 28 29 28 28 28 28 29 29 27 26 22 18 16 16 18 19 18 16 15 15 14 12 11 11 13 15 17 19 18 13 14 19 24 24 23 23 22 22 22 22 22 21 20 20 20 19 18 17 16 15 15 14 13 12 12 12
23 23 24 25 26 26 27 27 27 27 26 25 25 24 24 24 24 24 24 24 24 25 24 24 25 25 25 25 26 26 26 25 25 25 24 24 25 26 26 23 20 18 18 18 19 19 19 17 16 14 14 13 12 10 10 15 18 18 17 16 18 21 22 22 22 21 20 21 22 22 21 20 19 19 19 19 17 15 13 12 12 12 11 10 9 9
24 24 25 26 26 27 27 27 26 25 25 24 24 24 24 24 24 24 24 24 24 24 25 25 24 24 23 24 25 25 25 24 22 21 21 21 22 23 22 21 20 19 19 19 18 18 18 17 16 15 15 14 13 10 9 13 16 18 18 18 18 14 9 14 20 22 21 21 22 21 20 19 19 18 18 17 15 13 12 11 10 10 10 10 9 8
24 25 26 26 26 27 26 26 25 25 24 24 24 24 24 24 24 24 23 23 24 25 25 25 24 23 21 20 22 23 23 22 20 19 19 20 20 20 20 20 20 20 20 19 17 17 17 16 15 15 15 14 13 12 11 12 14 16 18 18 17 13 8 12 18 22 22 22 21 20 19 19 18 18 16 14 13 12 12 13 13 13 12 12 11 9
24 25 26 26 26 25 25 25 25 25 24 24 24 24 25 24 24 24 23 23 24 24 25 23 22 19 16 17 19 21 21 20 19 19 19 20 20 20 20 20 20 20 20 19 18 16 15 13 14 15 15 14 13 12 11 12 13 15 17 18 17 16 17 19 20 19 19 19 19 19 19 19 18 16 14 13 12 12 13 15 15 16 16 15 14 12
24 25 25 25 25 25 25 25 25 25 24 24 24 24 25 25 24 24 23 23 23 23 23 23 20 15 11 14 17 18 18 18 18 18 19 20 21 21 20 19 19 20 20 20 19 17 16 15 14 14 14 12 12 12 12 13 13 14 16 18 17 17 17 18 18 18 17 17 17 18 19 18 16 13 11 11 11 13 16 17 18 18 18 18 17 16
25 25 25 25 25 25 25 25 25 25 24 24 24 24 25 24 24 24 23 23 22 22 22 21 19 16 15 15 16 15 13 14 16 18 20 20 20 20 19 19 20 21 20 19 18 17 15 15 15 14 12 9 7 8 11 14 14 14 14 16 16 15 14 15 16 17 17 16 16 17 18 17 14 12 11 10 11 13 17 19 21 21 20 19 19 19
25 25 25 25 25 25 25 25 25 24 24 25 25 25 25 24 23 23 23 23 22 21 21 20 18 17 16 16 16 15 14 14 15 17 19 20 20 18 18 19 21 22 21 19 17 14 12 9 9 10 11 9 6 5 9 14 15 15 15 15 14 13 13 14 16 17 17 17 17 17 17 15 12 11 10 10 10 12 16 19 22 23 22 21 21 21
24 25 25 25 24 24 24 25 25 24 24 24 25 25 25 25 24 22 21 22 21 20 19 18 17 15 14 14 15 15 16 16 16 17 18 18 17 16 17 19 20 21 20 20 18 15 11 7 5 5 6 8 9 9 11 14 16 16 15 14 13 12 12 14 15 17 17 17 18 18 17 15 13 12 10 8 7 9 14 17 20 22 23 23 22 22
24 24 24 24 24 24 24 24 24 24 24 24 24 25 25 25 24 22 21 21 20 19 18 18 16 14 12 12 14 15 15 15 15 16 17 17 15 15 16 18 19 18 17 17 16 15 13 9 6 5 6 7 10 12 13 14 15 16 15 14 13 12 12 13 15 17 17 17 17 18 18 17 16 14 12 9 7 8 12 15 18 21 23 23 23 24
24 24 24 24 24 24 24 24 24 24 24 24 24 24 24 24 23 23 22 21 20 19 18 17 16 14 12 12 14 15 15 14 14 15 16 15 14 14 15 16 16 14 12 9 9 9 8 6 5 5 7 10 12 13 14 14 15 14 12 13 14 14 13 13 15 17 17 16 17 18 18 18 17 16 14 11 8 6 8 11 15 18 22 23 23 24
Wind_Direction
295 296 297 297 297 297 297 299 300 301 301 300 298 297 297 298 299 300 301 301 300 299 298 296 295 294 293 291 290 288 288 287 287 288 288 288 290 291 292 292 292 292 291 291 290 290 291 292 293 293 293 295 296 299 300 300 299 296 294 292 291 289 289 289 290 292 293 293 293 293 294 295 295 294 292 290 288 288 288 287 286 284 281 279 277 276
294 295 295 295 295 295 297 299 300 300 299 298 296 296 296 297 299 300 301 300 299 298 297 296 294 293 291 288 287 286 285 285 285 285 286 288 289 290 291 291 291 291 291 291 291 291 292 292 292 292 292 293 296 298 300 300 299 296 294 292 291 290 290 291 291 292 292 290 290 291 292 293 294 294 293 292 291 290 289 287 285 282 279 277 276 275
295 295 294 295 294 295 297 299 300 299 296 295 294 294 295 296 298 299 300 300 299 298 296 294 293 292 289 287 286 286 286 285 285 286 287 288 289 289 290 291 291 291 291 291 292 292 292 292 291 291 291 293 296 298 300 300 298 296 294 292 292 292 292 291 290 289 287 287 289 291 292 293 293 293 292 292 291 289 288 287 284 282 279 276 275 274
292 293 294 295 296 297 297 298 298 297 294 292 291 292 294 296 297 298 298 299 298 297 295 294 293 292 291 289 288 288 288 288 288 288 289 289 290 291 291 291 291 292 292 292 292 292 291 291 290 290 291 293 295 297 299 299 297 295 294 293 294 294 292 290 288 286 286 288 291 294 295 294 292 292 291 290 289 289 288 288 285 282 278 276 274 272
290 291 293 297 300 300 299 298 296 294 293 291 291 293 295 296 297 298 299 298 297 297 297 298 296 294 294 293 292 291 291 291 291 290 291 291 292 292 292 292 292 292 292 292 292 291 291 290 290 290 291 293 295 297 298 297 296 294 293 294 295 294 292 289 286 285 286 289 293 295 296 295 294 293 291 291 290 289 289 289 287 285 280 276 273 270
289 291 296 300 301 301 300 297 294 292 293 293 294 295 297 298 299 299 299 299 298 298 299 300 299 298 296 295 295 294 294 293 293 293 292 292 292 292 292 292 292 292 292 292 292 292 291 290 290 291 292 293 295 296 297 296 295 294 293 294 294 293 291 289 287 287 289 293 295 296 297 296 295 294 293 292 291 290 291 291 290 288 284 280 274 269
293 296 299 301 300 299 296 293 291 292 294 297 299 300 301 301 301 300 298 298 298 300 301 302 301 300 299 298 297 296 296 295 294 293 292 292 291 291 291 291 291 292 292 292 292 291 290 290 290 291 292 293 294 295 296 295 294 293 293 293 292 290 289 288 289 292 295 297 298 298 298 297 296 295 293 292 292 292 293 293 292 290 287 283 277 270
297 298 299 299 299 297 293 289 290 294 297 301 305 307 307 305 302 300 298 298 299 302 304 304 304 302 300 299 298 297 296 295 293 292 291 290 290 290 291 291 291 291 290 290 289 289 289 289 289 290 291 293 294 295 295 294 293 293 292 291 289 288 288 289 292 296 298 298 298 298 298 298 297 295 294 294 295 296 295 294 292 290 288 284 278 273
294 295 295 296 295 294 293 293 295 299 304 308 310 309 306 304 302 301 300 301 302 304 306 306 304 302 300 299 297 296 294 292 291 290 289 290 290 291 292 292 292 291 290 289 288 288 288 289 289 291 292 293 294 294 294 293 292 292 291 289 289 289 291 293 295 296 296 296 297 298 299 298 297 296 297 299 300 300 299 297 295 293 290 286 280 274
288 289 292 295 294 294 296 299 304 309 313 314 311 306 302 300 301 303 304 304 306 306 307 305 303 301 300 298 296 295 293 291 290 289 289 290 291 292 293 292 292 291 290 290 290 289 290 290 291 291 292 292 293 293 293 292 292 291 290 290 290 291 292 293 293 293 294 295 297 299 300 299 298 297 300 302 302 301 300 300 300 299 297 292 286 279
286 290 295 298 299 300 301 305 310 314 315 313 309 304 301 300 302 305 306 307 307 307 306 304 302 300 299 298 297 295 293 292 291 290 290 291 291 292 292 292 292 292 291 291 291 291 291 291 291 291 292 291 291 291 291 290 290 290 290 290 291 291 290 290 290 291 292 295 298 300 301 299 298 298 300 301 300 299 299 300 300 300 299 298 294 289
290 298 302 302 304 308 309 310 311 311 311 309 307 304 303 303 304 306 306 305 305 305 305 303 301 299 298 297 296 294 293 291 292 292 293 293 293 294 294 295 294 294 294 293 293 292 291 291 291 291 291 290 290 289 289 288 288 288 289 289 289 288 288 288 288 290 292 296 299 302 302 299 297 297 298 299 298 298 298 298 297 297 296 296 296 295
300 306 306 306 308 310 311 311 310 309 307 306 305 304 305 305 306 305 302 301 300 301 301 301 300 299 298 295 293 292 293 294 296 296 296 296 296 298 299 299 299 297 296 295 294 292 292 291 291 290 289 289 289 288 288 287 287 287 287 287 287 286 286 286 287 290 294 298 300 300 300 298 297 298 298 298 298 298 298 297 296 295 294 293 294 294
312 313 310 308 308 308 309 310 309 307 306 305 304 303 303 304 304 303 300 298 297 298 298 297 297 297 296 292 290 292 298 302 302 301 299 298 298 300 302 302 300 298 296 295 293 292 291 291 290 289 288 288 287 287 287 287 287 287 286 286 285 285 285 286 289 293 297 298 299 298 298 298 298 298 298 298 298 298 297 297 296 294 293 292 291 291
317 315 310 306 307 309 310 310 308 306 305 304 303 303 302 302 301 300 298 296 296 296 297 295 295 294 293 289 290 298 304 306 305 303 301 299 299 300 302 301 298 296 294 293 292 291 291 290 289 287 287 286 286 286 286 287 286 286 285 284 284 285 287 290 294 296 297 297 297 297 297 298 298 298 297 297 296 296 296 295 295 294 294 292 290 289
313 311 308 305 307 310 310 309 307 304 303 302 302 301 300 299 298 297 296 295 294 295 294 294 294 294 293 293 297 303 309 310 308 304 302 300 299 300 301 299 297 294 293 291 290 290 290 289 287 286 285 285 285 286 286 286 285 284 284 284 285 288 291 294 295 296 296 295 295 296 297 297 297 296 295 295 294 294 294 295 298 300 300 297 293 289
310 310 309 309 309 309 309 307 305 302 301 300 299 298 296 295 295 295 294 292 291 290 289 290 292 294 299 302 304 309 314 314 309 305 302 299 299 300 300 297 294 291 291 289 289 288 288 286 285 285 284 284 284 285 286 286 286 287 288 289 290 291 292 293 294 294 294 294 295 296 296 296 296 294 293 293 292 292 293 296 301 304 304 303 299 293
309 310 310 309 308 307 307 305 303 301 299 298 297 296 295 293 293 293 291 289 287 285 287 290 294 298 305 306 308 311 316 315 310 305 301 299 298 299 299 295 291 288 287 287 287 286 285 283 283 283 282 282 282 283 285 288 290 291 291 291 291 291 292 292 292 293 293 294 295 296 296 295 294 293 292 291 291 292 294 297 299 300 301 300 299 296
309 310 309 308 307 305 303 301 300 298 297 297 296 296 295 294 292 291 288 285 283 285 292 298 301 302 303 302 304 309 313 313 308 303 299 297 297 297 297 294 289 286 284 284 283 282 281 280 281 282 283 286 288 290 291 291 291 291 290 290 290 290 290 291 291 292 293 294 295 295 295 293 292 292 291 291 292 293 295 296 297 297 297 296 296 296
309 308 307 306 305 303 300 297 296 295 295 295 295 295 294 293 292 290 287 287 290 296 302 304 303 302 301 301 303 306 310 309 305 300 297 295 294 295 295 293 287 282 282 280 279 280 280 281 285 292 297 299 299 298 295 293 292 291 290 289 289 289 289 289 290 290 291 293 294 294 293 292 291 291 291 292 293 294 295 295 295 295 294 293 293 293
307 306 305 303 301 298 295 294 294 294 294 295 295 295 295 296 297 298 300 302 303 304 304 302 300 300 301 301 302 304 306 304 300 296 294 293 292 293 294 291 286 282 281 282 283 283 284 289 297 302 303 301 298 296 294 293 292 290 289 288 288 288 288 288 288 289 291 293 293 292 291 291 291 291 291 292 293 294 294 293 293 292 291 290 290 290
304 302 301 299 297 294 293 293 294 296 299 300 301 300 302 304 305 305 305 305 303 302 301 300 299 299 300 299 299 300 301 298 293 291 291 289 289 292 294 294 290 287 286 286 288 291 295 299 301 300 299 297 296 294 293 292 290 289 288 288 288 288 287 286 286 288 291 292 292 291 290 290 290 290 291 292 292 292 292 291 290 289 289 288 287 287
300 299 298 298 296 295 296 298 301 304 307 307 306 305 304 304 303 302 301 301 300 300 300 300 299 298 297 296 296 296 295 292 289 287 288 284 287 292 296 296 293 289 287 290 295 300 301 300 298 297 296 294 293 292 291 290 289 288 288 287 287 286 285 285 287 289 290 290 290 289 290 290 290 290 291 291 290 290 289 288 288 287 287 286 285 284
299 298 299 301 303 305 306 308 308 309 308 306 304 302 301 300 299 298 298 298 299 300 301 300 299 298 296 295 295 294 293 291 288 286 284 281 285 290 295 296 294 292 292 296 300 301 300 297 295 294 293 292 291 290 289 288 288 287 287 286 286 285 284 285 287 288 289 289 289 289 289 290 290 290 290 289 289 288 288 287 286 285 285 284 283 282
303 304 307 309 310 310 308 307 306 305 305 304 304 303 303 301 300 299 298 298 299 301 301 301 299 297 297 297 296 294 294 292 287 283 281 281 285 290 294 296 297 297 297 298 299 298 296 295 293 292 291 289 288 287 287 286 286 286 285 285 284 283 283 284 286 288 288 289 289 289 289 289 288 288 288 288 287 287 287 286 285 284 284 283 282 281
308 310 311 310 309 307 306 305 304 304 304 305 305 305 304 303 301 300 299 300 302 302 302 299 295 294 296 296 295 293 294 293 288 283 282 284 288 291 294 296 297 296 296 297 297 296 295 294 293 292 290 289 287 285 284 284 284 284 283 282 281 282 283 285 287 288 289 289 288 288 287 287 287 287 287 287 287 287 287 286 285 284 283 282 282 281
312 311 310 309 308 307 306 306 306 306 306 305 305 304 303 302 301 300 300 303 304 304 300 294 290 292 294 294 293 294 295 295 292 288 286 286 287 289 294 297 298 297 296 296 296 295 294 292 291 291 289 287 286 284 282 282 281 280 280 280 281 282 284 286 288 288 289 288 287 287 286 286 286 287 287 287 287 287 286 285 284 283 282 282 282 280
313 312 311 309 309 308 307 307 307 306 305 304 303 302 301 300 300 300 302 304 304 301 297 292 290 291 292 291 295 297 297 296 294 293 291 289 288 290 294 298 298 297 296 295 295 294 292 290 288 287 286 285 284 284 283 282 280 279 280 281 282 284 286 287 288 288 288 287 286 286 286 286 287 287 287 287 287 286 285 284 283 283 282 282 280 279
314 313 311 310 309 308 307 306 305 304 303 302 301 300 299 298 298 300 301 302 300 297 293 291 290 291 293 295 297 298 297 295 295 296 297 294 291 291 294 296 297 296 296 296 295 294 292 289 288 286 285 287 288 289 289 287 284 282 282 283 284 285 287 288 288 288 287 286 286 287 287 288 288 289 288 288 287 286 284 283 283 282 281 280 277 275
315 313 312 310 309 308 307 305 304 302 301 300 299 297 297 297 297 297 298 298 295 292 292 293 294 294 295 297 297 295 294 296 298 300 301 299 293 291 294 294 294 294 296 297 296 293 292 292 293 292 291 292 293 293 291 289 286 285 284 285 285 286 287 288 287 287 287 288 289 290 290 290 290 289 289 287 286 285 284 283 282 281 279 276 273 270
314 313 311 310 308 307 307 305 304 302 301 300 298 296 297 298 297 296 296 295 292 290 291 293 294 294 295 296 295 292 292 298 300 302 302 298 292 290 293 293 293 293 294 295 294 294 296 296 298 298 297 296 294 292 289 287 286 286 286 287 287 288 288 288 289 290 291 292 292 292 292 291 290 289 288 287 286 284 283 282 280 278 276 272 268 264
312 311 310 309 308 307 307 306 305 303 302 300 298 298 298 299 298 297 295 294 292 290 290 291 292 292 292 289 287 287 291 296 298 299 299 296 290 289 291 291 291 292 293 291 290 291 297 298 301 300 299 296 294 291 288 287 288 289 290 290 290 290 291 293 294 295 295 295 294 294 292 291 290 289 288 287 286 285 284 282 279 276 272 268 263 260
310 309 308 308 307 307 306 306 305 303 302 300 299 300 301 300 300 298 296 294 292 290 290 290 290 290 289 287 284 284 287 291 294 296 297 295 291 289 290 291 291 292 292 290 287 286 286 288 296 298 297 295 293 290 290 291 291 292 291 292 292 294 296 298 298 297 296 296 295 295 294 292 291 290 289 288 287 286 284 281 278 274 269 265 261 258
309 308 307 308 308 307 306 306 305 304 303 302 302 303 303 302 301 300 297 295 293 291 289 288 289 289 289 288 286 286 287 290 293 296 297 295 292 289 291 291 291 291 292 290 288 288 286 288 291 294 295 295 294 293 294 294 294 293 293 296 297 298 299 299 299 297 296 296 296 295 295 294 294 293 292 291 289 287 284 281 278 274 270 266 262 259
308 308 308 308 308 307 307 307 306 306 305 305 305 305 305 304 303 301 299 297 295 293 290 289 287 287 288 289 288 288 289 292 294 297 297 295 291 289 291 292 292 292 292 290 290 289 285 288 290 291 291 295 297 298 298 297 297 299 301 301 300 299 298 298 297 297 296 296 296 295 295 295 295 294 293 291 290 288 286 283 281 277 273 268 263 259
307 307 307 308 308 308 308 308 308 309 308 308 307 307 306 305 303 302 300 299 297 295 293 291 289 287 286 285 285 285 288 291 294 295 295 293 291 289 290 291 292 292 291 290 289 287 284 284 289 293 295 296 299 301 302 303 305 306 305 303 301 298 297 296 295 295 295 295 294 294 294 294 294 293 292 292 291 289 288 286 284 280 275 269 263 258
306 307 308 309 309 309 309 309 310 310 310 309 308 308 307 305 303 302 301 299 298 296 295 293 291 288 286 284 283 283 285 288 290 292 292 291 290 288 287 289 291 291 289 288 289 290 290 290 295 299 299 298 300 304 307 309 309 307 305 303 301 299 298 297 297 296 294 293 292 293 294 293 293 292 292 293 293 293 292 290 287 284 279 273 267 260
307 307 309 311 311 311 311 310 310 310 310 309 309 308 307 305 303 302 301 299 297 296 296 295 293 291 289 287 285 284 285 285 287 289 290 290 289 287 286 286 287 288 286 286 289 294 299 304 306 306 303 301 301 303 305 307 308 307 306 305 303 300 298 299 299 298 295 293 292 293 293 293 293 292 293 294 295 295 294 295 294 293 291 287 280 271
308 309 310 311 312 312 311 310 310 309 309 308 307 306 306 304 303 301 300 298 297 296 295 295 294 292 291 290 288 287 287 287 287 289 290 291 290 288 287 286 286 287 287 289 295 304 310 309 307 304 304 303 302 302 303 304 305 306 308 308 307 305 302 302 301 300 297 295 294 295 295 296 296 295 294 294 295 294 293 295 297 298 299 300 297 288
309 311 311 312 311 311 310 309 308 308 308 307 306 306 306 305 304 303 302 301 301 300 298 296 295 294 292 291 290 289 289 289 290 290 291 291 291 290 288 286 286 288 292 299 305 308 307 303 298 296 296 297 298 300 303 304 306 308 310 310 310 309 308 306 303 301 299 298 296 296 297 298 298 298 297 298 298 297 296 297 299 301 304 305 305 304
311 311 311 311 311 310 309 308 308 308 307 307 306 307 307 307 307 307 306 306 306 305 303 302 301 300 296 294 293 292 292 291 291 291 292 294 295 294 291 290 290 294 301 306 306 304 300 295 292 292 292 293 296 298 301 303 305 307 308 306 305 305 306 305 304 303 303 303 302 301 300 301 301 302 303 304 304 304 304 303 303 305 308 310 311 312
312 311 311 311 310 310 309 309 308 308 308 308 308 308 308 307 307 308 308 308 308 308 307 307 306 304 302 299 298 297 295 294 293 293 295 299 301 301 299 298 300 304 307 306 304 301 298 294 291 290 292 295 297 299 301 302 304 305 304 302 303 305 306 306 307 308 308 307 306 306 305 304 305 307 309 310 312 314 317 316 313 312 314 319 325 328
311 311 310 310 309 309 309 309 309 310 310 310 309 309 308 308 308 308 308 308 308 308 308 307 306 304 301 301 301 302 301 299 299 300 302 306 308 309 309 308 308 308 307 305 302 300 299 296 292 291 292 294 296 296 296 300 303 304 304 304 305 306 307 308 310 311 311 310 309 309 309 310 311 313 315 316 319 324 332 335 337 337 338 342 346 348
310 310 310 310 310 311 311 311 311 311 311 311 310 309 309 308 308 308 307 307 307 307 308 307 305 303 300 299 301 304 304 304 305 307 310 313 316 316 314 311 310 309 308 305 302 301 300 299 295 292 292 293 293 293 294 298 301 304 306 306 305 302 294 299 304 307 309 309 311 313 316 318 320 321 321 323 329 339 348 355 2 6 9 10 10 8
311 311 311 312 312 312 312 312 312 312 312 311 310 309 310 309 309 308 306 306 306 306 307 306 304 303 301 301 303 305 306 307 310 313 317 320 321 320 317 314 314 314 312 307 302 298 296 294 294 294 294 292 291 290 291 295 300 304 307 309 308 303 296 297 299 301 303 307 311 318 324 328 329 327 326 330 341 354 4 9 12 14 17 19 20 19
313 313 313 313 313 312 312 312 312 312 312 311 311 310 310 310 310 309 307 305 304 304 304 304 303 300 299 302 304 305 306 310 314 319 322 323 323 322 320 321 321 320 317 311 305 298 291 286 285 288 291 292 292 290 291 295 300 303 306 309 310 307 304 304 304 304 306 309 315 324 334 339 339 335 333 338 351 6 16 20 20 19 20 21 22 23
314 314 313 313 313 312 312 312 313 313 313 312 312 311 311 311 310 309 308 306 305 304 304 304 302 299 298 299 301 303 307 312 318 322 324 324 324 324 325 328 329 328 324 319 312 305 297 289 284 282 282 284 289 296 299 302 302 302 304 308 309 310 308 308 311 315 320 322 326 334 343 345 344 343 345 354 6 16 22 25 26 26 25 25 24 24
314 313 313 312 312 312 312 313 314 314 313 313 312 312 312 312 311 310 309 308 307 306 306 305 303 300 299 300 301 304 310 316 320 322 324 324 324 326 331 334 336 335 335 333 329 324 317 310 301 291 283 279 285 304 307 309 308 307 306 308 309 309 309 311 318 327 334 339 344 349 352 350 347 344 346 360 16 25 25 25 26 28 29 29 28 27
313 312 312 312 312 312 312 313 314 313 313 312 312 313 313 313 312 310 308 308 307 306 306 304 303 301 301 303 306 311 316 319 321 323 323 323 325 330 336 340 340 340 341 343 346 349 353 356 352 334 314 302 305 311 310 312 313 313 313 312 311 311 312 316 326 336 344 350 357 3 6 5 3 0 0 9 22 29 29 26 25 26 28 31 31 31
312 311 311 312 312 312 312 313 313 313 312 311 312 313 314 314 314 312 311 310 309 307 305 303 302 302 303 308 314 318 321 323 324 324 324 324 329 336 342 344 344 344 344 347 350 354 358 360 358 349 339 335 328 321 318 316 317 320 322 323 323 323 322 325 334 342 350 356 3 11 16 18 18 19 23 27 32 34 33 29 24 23 26 30 33 34
313 311 312 312 312 312 312 313 312 312 311 311 311 312 313 314 314 314 314 314 312 309 306 305 304 305 310 315 319 322 324 325 325 325 324 326 333 342 346 346 346 346 346 347 349 350 349 347 342 340 343 350 348 341 332 325 323 325 329 334 337 338 337 337 342 349 356 3 12 18 22 23 23 23 26 32 35 34 34 30 24 21 24 29 33 35